MPEC 2008-G85 : 2008 GB110

The following Minor Planet Electronic Circular may be linked-to from your own Web pages, but must not otherwise be redistributed electronically.


Read MPEC 2008-G84 Read MPEC 2008-G86


M.P.E.C. 2008-G85                                Issued 2008 Apr. 15, 18:54 UT

     The Minor Planet Electronic Circulars contain information on unusual
         minor planets and routine data on comets.  They are published
   on behalf of Commission 20 of the International Astronomical Union by the
          Minor Planet Center, Smithsonian Astrophysical Observatory,
                          Cambridge, MA 02138, U.S.A.

             Prepared using the Tamkin Foundation Computer Network

                              MPC@CFA.HARVARD.EDU
          URL http://www.cfa.harvard.edu/iau/mpc.html  ISSN 1523-6714

                                  2008 GB110

Observations:
     K08GB0B* C2008 04 14.24156 12 30 44.58 -10 48 05.2          19.0   EG085704
     K08GB0B  C2008 04 14.25265 12 30 45.16 -10 46 53.7          18.7   EG085704
     K08GB0B  C2008 04 14.27467 12 30 46.23 -10 44 26.7          18.6   EG085704
     K08GB0B  C2008 04 14.28582 12 30 46.79 -10 43 11.2          18.4   EG085704
     K08GB0B  C2008 04 15.20694 12 31 41.52 -09 02 29.8          18.7 V EG085G96
     K08GB0B  C2008 04 15.21403 12 31 41.84 -09 01 43.9          19.0 V EG085G96
     K08GB0B  C2008 04 15.22120 12 31 42.20 -09 00 57.3          19.1 V EG085G96
     K08GB0B  C2008 04 15.22829 12 31 42.56 -09 00 11.4          19.1 V EG085G96
     K08GB0B  C2008 04 15.27191 12 31 44.72 -08 55 28.4          18.5 V EG085G96
     K08GB0B  C2008 04 15.27627 12 31 44.99 -08 54 59.7          18.4 R EG085854
     K08GB0B  C2008 04 15.27852 12 31 45.01 -08 54 45.5          18.5 V EG085G96
     K08GB0B  C2008 04 15.28492 12 31 45.39 -08 54 03.7          18.2 R EG085854
     K08GB0B  C2008 04 15.28514 12 31 45.33 -08 54 02.5          18.7 V EG085G96
     K08GB0B  C2008 04 15.28877 12 31 45.67 -08 53 39.4          18.2 R EG085854
     K08GB0B  C2008 04 15.29181 12 31 45.66 -08 53 19.4          18.9 V EG085G96

Observer details:
704 Lincoln Laboratory ETS, New Mexico.  Observers M. Bezpalko, D. Torres,
    R. Kracke, G. Spitz, J. Kistler.  Measurers J. Stuart, S. Scruggs.  1.0-m
    f/2.15 reflector + CCD.
854 Sabino Canyon Observatory, Tucson.  Observer J. E. McGaha.  0.36-m f/10.0
    Schmidt-Cassegrain + CCD.
G96 Mt. Lemmon Survey.  Observer E. Beshore.  Measurers E. C. Beshore,
    A. Boattini, G. J. Garradd, A. R. Gibbs, A. D. Grauer, R. E. Hill,
    R. A. Kowalski, S. M. Larson, R. H. McNaught.  1.5-m reflector + CCD.

Orbital elements:
2008 GB110                                               Earth MOID = 0.3362 AU
Epoch 2008 May 14.0 TT = JDT 2454600.5                  MPC
M  27.29590              (2000.0)            P               Q
n   0.33994033     Peri.  317.45478     -0.88669020     -0.39101138
a   2.0332975      Node   203.41444     +0.34464102     -0.91470890
e   0.3813280      Incl.   38.38694     -0.30822566     +0.10206729
P   2.90           H   19.6           G   0.15           U   9
Residuals in seconds of arc
080414 704  0.2-  0.6+    080415 G96  0.2-  0.2-    080415 G96  0.7-  0.0
080414 704  0.3+  1.4-    080415 G96  0.2-  0.1-    080415 854  0.2+  0.3+
080414 704  0.1-  0.4-    080415 G96  0.1-  0.1-    080415 G96  0.8-  0.1+
080414 704  0.0   1.2+    080415 G96  0.1-  0.0     080415 854  1.6+  0.4-
080415 G96  0.3+  0.1-    080415 854  0.7+  0.4+    080415 G96  0.8-  0.0

Ephemeris:
2008 GB110               a,e,i = 2.03, 0.38, 38                  q = 1.2579
Date    TT    R. A. (2000) Decl.     Delta      r     Elong.  Phase     V
2008 04 14    12 30.50   -11 14.6    0.348    1.343   165.2    11.0    18.6
2008 04 24    12 40.27   +04 51.3    0.405    1.377   152.0    20.0    19.3
2008 05 04    12 50.30   +15 27.6    0.496    1.415   137.6    28.7    20.1
2008 05 14    13 00.97   +21 37.6    0.606    1.456   126.6    33.9    20.7
2008 05 24    13 12.43   +24 54.3    0.728    1.500   118.1    36.5    21.3
2008 06 03    13 24.62   +26 22.0    0.855    1.546   111.3    37.7    21.7

Sonia Keys                   (C) Copyright 2008 MPC           M.P.E.C. 2008-G85

Read MPEC 2008-G84 Read MPEC 2008-G86


Our Web policy. Index to the CBAT/MPC/ICQ pages.

MPC

Valid HTML 4.01!